Probability
0 0 0 0 0 0 0 0 0 0 0 0 0 0 0 0 0 0 0 0 0 0 0 0 0 0 0 0 0 0 0 0 0 0 0 0 0 0 0 0 0 0 0
0 0 0 0 0 0 0 0 0 0 0 0 0 0 0 0 0 0 0 0 0 0 0 0 0 0 0 0 0 0 0 0 0 0 0 0 0 0 0 0 0 0 0
0 0 0 0 0 0 0 0 0 0 0 0 0 0 0 0 0 0 0 0 0 0 0 0 0 0 0 0 0 0 0 0 0 0 0 0 0 0 0 0 0 0 0
0 0 0 0 0 0 0 0 0 0 0 0 0 0 0 0 0 0 0 0 0 0 0 0 0 0 0 0 0 0 0 0 0 0 0 0 0 0 0 0 0 0 0
0 0 0 0 0 0 0 0 0 0 0 0 0 0 0 0 0 0 0 0 0 0 0 0 0 0 0 0 0 0 0 0 0 0 0 0 0 0 0 0 0 0 0
0 0 0 0 0 0 0 0 0 0 0 0 0 0 0 0 0 0 0 0 0 0 0 0 0 0 0 0 0 0 0 0 0 0 0 0 0 0 0 0 0 0 0
0 0 0 0 0 0 0 0 0 0 0 0 0 0 0 0 0 0 0 0 0 0 0 0 0 0 0 0 0 0 0 0 0 0 0 0 0 0 0 0 0 0 0
0 0 0 0 0 0 0 0 0 0 0 0 0 0 0 0 0 0 0 0 0 0 0 0 0 0 0 0 0 0 0 0 0 0 0 0 0 0 0 0 0 0 0
0 0 0 0 0 0 0 0 0 0 0 0 0 0 0 0 0 0 0 0 0 0 0 0 0 0 0 0 0 0 0 0 0 0 0 0 0 0 0 0 0 0 0
0 0 0 0 0 0 0 0 0 0 0 0 0 0 0 0 0 0 0 0 0 0 0 0 0 0 0 0 0 0 0 0 0 0 0 0 0 0 0 0 0 0 0
0 0 0 0 0 0 0 0 0 0 0 0 0 0 0 0 0 0 0 0 0 0 0 0 0 0 0 0 0 0 0 0 0 0 0 0 0 0 0 0 0 0 0
0 0 0 0 0 0 0 0 0 0 0 0 0 0 0 0 0 0 0 0 0 0 0 0 0 0 0 0 0 0 0 0 0 0 0 0 0 0 0 0 0 0 0
0 0 0 0 0 0 0 0 0 0 0 0 0 0 0 0 0 0 0 0 0 0 0 0 0 0 0 0 0 0 0 0 0 0 0 0 0 0 0 0 0 0 0
1 0 0 0 0 0 0 0 0 0 0 0 0 0 0 0 0 0 0 0 0 0 0 0 0 0 0 0 0 0 0 0 0 0 0 0 0 0 0 0 0 0 0
2 1 0 0 0 0 0 0 0 0 0 0 0 0 0 0 0 0 0 0 0 0 0 0 0 0 0 0 0 0 0 0 0 0 0 0 0 0 0 0 0 0 0
3 2 1 1 0 0 0 0 0 0 0 0 0 0 0 0 0 0 0 0 0 0 0 0 0 0 0 0 0 0 0 0 0 0 0 0 0 0 0 0 0 0 0
5 4 3 2 1 0 0 0 0 0 0 0 0 0 0 0 0 0 0 0 0 0 0 0 0 0 0 0 0 0 0 0 0 0 0 0 0 0 0 0 0 0 0
4 4 3 3 2 1 0 0 0 0 0 0 0 0 0 0 0 0 0 0 0 0 0 0 0 0 0 0 0 0 0 0 0 0 0 0 0 0 0 0 0 0 0
4 3 2 2 2 1 0 0 0 0 0 0 0 0 0 0 0 0 0 0 0 0 0 0 0 0 0 0 0 0 0 0 0 0 0 0 0 0 0 0 0 0 0
3 3 2 2 1 0 0 0 0 0 0 0 0 0 0 0 0 0 0 0 0 0 0 0 0 0 0 0 0 0 0 0 0 0 0 0 0 0 0 0 0 0 0
3 3 3 2 1 0 0 0 0 0 0 0 0 0 0 0 0 0 0 0 0 0 0 0 0 0 0 0 0 0 0 0 0 0 0 0 0 0 0 0 0 0 0
3 3 3 3 2 1 0 0 0 0 0 0 0 0 0 0 0 0 0 0 0 0 0 0 0 0 0 0 0 0 0 0 0 0 0 0 0 0 0 0 0 0 0
2 3 3 3 2 1 0 0 0 0 0 0 0 0 0 0 0 0 0 0 0 0 0 0 0 0 0 0 0 0 0 0 0 0 0 0 0 0 0 0 0 0 0
3 3 2 1 1 1 0 0 0 0 0 0 0 0 0 0 0 0 0 0 0 0 0 0 0 0 0 0 0 0 0 0 0 0 0 0 0 0 0 0 0 0 0
3 3 2 1 1 0 0 0 0 0 0 0 0 0 0 0 0 0 0 0 0 0 0 0 0 0 0 0 0 0 0 0 0 0 0 0 0 0 0 0 0 0 0
3 3 3 2 2 1 0 0 0 0 0 0 0 0 0 0 0 0 0 0 0 0 0 0 0 0 0 0 0 0 0 0 0 0 0 0 0 0 0 0 0 0 0
Wind_Speed
0 1 5 7 8 9 9 9 10 10 10 11 11 11 11 12 11 11 11 11 11 12 12 12 12 12 12 12 12 12 11 11 11 10 10 9 9 9 9 9 8 5 9
2 3 6 7 9 9 9 9 9 10 10 10 11 11 11 11 11 11 11 10 10 10 11 11 11 11 11 11 10 10 10 10 9 9 8 7 7 7 8 8 7 4 7
4 4 6 7 9 9 9 9 9 9 10 10 10 10 10 10 10 10 10 9 9 9 10 10 10 10 10 9 9 9 9 9 8 8 7 4 3 6 6 7 6 6 6
6 5 6 8 9 10 9 9 9 9 9 9 9 10 10 10 10 10 10 9 9 9 9 9 9 8 8 8 8 8 8 8 8 7 4 3 2 4 5 6 6 6 5
6 5 6 8 9 9 10 10 10 10 10 9 9 10 10 9 9 9 9 9 9 8 9 8 7 7 6 6 7 7 8 8 8 6 4 3 2 3 4 4 5 5 4
6 6 6 8 9 10 10 10 10 10 10 10 9 9 9 9 8 8 8 8 8 8 8 7 6 6 5 5 6 7 7 7 6 4 3 3 2 2 3 3 3 3 3
6 5 5 8 9 9 9 10 9 9 9 9 9 9 9 9 8 8 7 7 7 7 7 6 6 4 4 5 5 6 7 6 3 3 3 3 3 3 3 3 3 3 3
6 6 5 7 8 8 8 9 9 9 8 8 8 8 8 8 7 7 7 6 6 6 6 5 5 4 4 4 5 6 6 5 3 3 2 2 3 3 4 3 3 3 3
7 6 5 4 5 6 7 8 8 8 8 7 7 7 7 6 6 6 5 5 5 4 5 5 4 4 5 5 5 5 5 5 2 2 3 2 4 4 4 4 4 4 4
7 6 5 5 4 4 4 6 7 8 8 8 7 6 6 5 4 5 4 4 4 4 4 4 5 4 5 6 6 5 5 4 2 2 2 3 4 4 4 5 5 5 5
6 4 4 4 4 4 3 5 5 6 7 7 6 6 5 3 3 2 3 4 4 4 4 5 5 5 5 5 6 6 4 2 2 2 2 4 5 5 5 5 6 6 6
4 3 3 3 4 3 3 3 3 3 4 4 4 4 3 2 2 3 4 4 4 4 4 5 5 5 4 3 4 5 2 2 2 2 2 5 5 5 6 6 6 6 6
3 2 3 3 3 3 3 3 2 2 3 3 4 3 3 3 2 2 2 2 3 3 3 4 4 3 3 2 2 2 3 2 1 2 3 5 6 6 7 7 7 7 7
3 2 2 2 3 3 3 2 2 2 2 2 3 3 3 2 2 2 2 2 2 2 2 2 2 3 3 3 3 3 3 2 1 1 2 5 6 6 7 8 8 8 8
3 2 2 2 3 3 3 2 2 2 2 2 2 3 3 2 2 2 2 2 2 2 2 2 2 3 3 3 3 3 3 2 2 2 2 5 6 7 8 9 9 9 9
2 1 1 2 2 3 3 2 2 1 2 2 2 3 3 2 2 2 2 2 2 2 2 2 2 2 2 2 3 3 3 2 2 2 2 3 6 8 8 9 9 10 10
1 1 1 2 2 2 2 2 2 2 2 2 2 2 3 2 2 2 2 2 2 2 2 2 2 2 2 3 3 3 3 3 3 3 3 3 3 6 8 9 10 10 10
2 2 1 1 2 2 2 2 2 2 2 2 2 2 3 3 3 2 2 2 3 2 2 2 2 2 2 3 3 3 2 2 3 2 2 3 3 3 6 9 11 12 12
1 1 2 1 2 2 2 2 2 2 2 2 2 2 2 3 3 2 2 2 3 2 3 3 3 2 3 3 3 2 2 2 2 2 3 4 4 4 4 7 10 11 12
1 2 2 2 2 2 1 2 2 2 2 2 2 2 2 2 2 2 2 2 2 2 3 3 3 2 2 3 3 3 2 1 2 2 3 3 4 5 5 5 5 7 11
2 2 2 2 2 1 1 0 1 1 1 1 2 3 3 3 2 2 2 2 2 2 2 3 2 2 3 3 2 2 2 2 2 2 2 3 4 5 5 5 4 4 5
2 2 2 2 2 1 1 0 0 1 1 1 1 2 3 3 3 3 2 2 2 2 3 3 3 2 2 3 1 2 3 3 3 3 2 3 4 4 5 5 5 5 4
2 2 1 2 2 2 1 1 1 1 1 1 2 2 3 3 3 3 3 2 2 2 2 2 2 2 1 2 2 1 1 3 4 2 2 3 4 3 3 4 4 5 5
1 0 1 1 1 2 1 2 2 1 0 0 1 1 2 3 3 3 3 3 3 2 2 2 2 2 1 2 2 2 1 1 2 3 2 2 4 4 4 4 4 4 4
1 0 0 1 1 2 2 2 1 1 0 1 1 2 2 2 2 3 3 2 3 2 3 3 3 3 2 1 1 2 2 2 1 2 5 4 3 3 3 3 3 3 3
0 0 0 1 1 1 1 2 1 1 1 1 1 1 1 2 2 3 3 2 2 2 2 2 2 2 2 2 1 2 1 2 2 2 4 6 5 4 4 3 3 3 3
Wind_Direction
111 140 114 104 99 101 101 97 95 92 91 92 93 92 90 87 84 80 77 75 77 76 75 72 70 68 66 64 63 61 58 53 49 47 49 54 60 68 69 68 63 50 58
144 132 111 102 100 99 101 100 98 96 93 94 96 95 93 91 87 83 80 76 77 79 78 74 72 69 67 63 60 56 51 45 42 38 37 41 52 60 65 64 63 60 56
114 117 109 99 100 98 97 98 98 97 96 95 94 96 94 89 85 82 80 76 74 78 79 76 74 71 67 60 54 48 42 36 35 33 29 17 31 57 61 58 55 53 48
109 102 98 92 97 97 95 93 92 95 96 97 96 97 95 90 85 81 77 75 75 74 76 77 73 71 66 57 47 38 32 29 31 29 25 4 358 48 59 55 46 41 38
97 87 90 87 90 92 92 91 88 88 91 94 95 95 94 92 88 83 79 75 72 72 72 71 72 66 60 51 40 30 26 28 27 25 20 11 348 33 51 50 42 36 29
94 86 88 86 90 87 87 88 88 87 86 88 89 89 90 89 85 81 80 77 74 70 69 62 65 62 50 38 29 24 23 25 23 15 8 359 336 6 27 35 34 32 21
91 83 89 84 84 85 84 82 84 87 88 86 86 85 85 84 83 79 77 77 73 69 64 59 49 49 38 24 15 12 14 15 20 7 355 342 329 343 356 9 11 5 357
93 85 83 79 79 78 78 78 77 80 83 87 87 87 87 84 80 77 76 74 72 66 58 51 40 24 11 8 2 0 0 2 2 349 339 327 324 336 341 353 354 348 340
78 78 68 72 76 76 75 74 72 72 72 76 79 80 80 78 74 67 65 63 61 54 43 33 26 17 6 357 356 355 353 352 347 319 323 309 311 323 334 338 338 331 322
69 67 61 61 61 65 77 76 70 65 61 61 64 65 69 66 61 54 47 42 41 37 28 18 11 6 359 355 351 352 349 346 336 317 305 295 303 310 321 326 324 321 320
68 63 64 61 57 59 69 73 72 67 57 55 53 53 57 50 43 43 35 32 29 26 20 14 6 2 353 348 345 345 346 335 321 311 302 309 315 322 325 329 326 321 318
72 61 64 68 66 66 69 65 57 57 52 45 40 38 43 46 40 42 32 22 16 13 6 3 357 352 350 341 338 338 333 322 321 317 326 331 333 335 332 331 331 330 327
108 78 59 73 74 70 64 64 50 50 46 41 40 31 34 41 35 32 29 17 8 7 2 356 356 350 343 338 329 332 325 324 328 329 346 342 337 336 338 339 337 337 336
85 75 58 74 80 75 74 69 62 56 48 42 29 30 39 42 34 24 25 14 15 2 357 354 344 344 344 338 336 339 340 333 334 334 355 355 358 354 351 348 346 346 347
73 53 54 76 91 89 86 76 70 61 55 44 35 31 39 47 36 23 14 14 8 2 1 350 343 348 345 340 346 345 336 336 340 349 3 10 10 5 357 350 348 347 348
59 54 50 73 93 100 94 84 76 66 59 50 40 30 34 41 35 28 21 12 5 359 346 337 340 346 338 340 345 345 337 347 10 13 9 11 16 13 3 358 355 351 349
47 41 48 83 84 98 104 96 81 70 66 56 36 28 31 34 29 24 28 15 354 349 343 342 353 359 357 352 346 347 359 9 19 23 17 15 7 11 5 358 354 350 348
51 48 44 60 80 90 96 97 83 71 67 55 34 29 29 31 34 34 30 8 351 358 360 360 359 355 353 349 342 342 354 10 18 18 22 18 10 4 0 0 355 350 346
45 47 54 58 73 75 81 88 85 77 65 55 42 33 29 30 36 44 33 8 2 13 11 1 2 359 349 345 335 337 353 3 9 17 19 16 12 11 5 1 0 357 352
43 50 55 57 62 76 86 81 75 66 53 51 49 35 33 28 34 46 40 18 15 22 14 3 351 357 350 336 329 335 335 341 15 17 19 20 15 14 10 4 360 356 357
37 39 43 51 41 48 69 105 93 57 35 38 44 39 37 32 34 46 36 25 22 26 11 360 346 348 1 354 349 332 333 339 28 16 21 22 13 11 12 6 7 6 356
31 31 37 28 30 40 48 15 146 126 72 62 44 34 29 29 26 33 34 31 19 21 17 13 9 358 360 11 3 338 329 331 7 357 9 20 10 6 7 2 2 8 0
23 24 32 27 31 36 56 91 63 73 52 28 17 26 23 28 30 29 29 30 24 31 19 11 12 15 349 353 23 30 330 297 315 318 357 12 7 358 354 351 359 359 354
265 332 11 31 45 39 68 101 123 122 185 260 4 17 20 26 29 30 31 30 26 27 24 15 19 9 22 0 349 6 2 284 297 304 314 348 351 348 344 341 343 343 346
228 215 310 31 49 44 63 86 111 94 354 2 50 37 14 8 23 24 28 33 28 24 20 18 17 20 25 23 5 334 327 331 332 286 297 316 326 325 326 320 319 325 333
5 49 26 71 44 36 61 71 88 94 71 44 20 24 9 4 13 15 18 25 25 21 16 11 20 26 21 26 23 21 359 330 315 300 290 305 306 304 306 303 314 322 329